Location: Balmoral
(33.0667°S, 151.5833°E)
Time: 00:59:51
(UTC+00:00)

Cosmos 1515 - Pass Details

Date: 18 September 2020
Orbit: 506 x 516 km, 82.5° (Epoch: 21 October)

Event Time Altitude Azimuth Distance (km) Brightness Sun altitude
Rises 18:44:27 0° 188° (S) 2,671 7.3 -14.0°
Reaches altitude 10° 18:46:37 10° 188° (S) 1,774 6.4 -13.5°
Maximum altitude 18:50:31 81° 275° (W) 534 3.6 -12.7°
Drops below altitude 10° 18:54:21 10° 2° (N) 1,745 6.3 -11.9°
Sets 18:56:27 0° 3° (N) 2,622 7.3 -11.5°
